weather station
Area: 11014 km2
The highest point: Tok (865 m.s.l.)
Total stations: 48
Stations online: 44
Stations offline: 4
Current weather
22°C

Meteorological map - weather stations in Středočeský

. The meteorological maps show weather information from WARIO weather stations

Weather stations Středočeský

 UpdatesNameStatusTemperatureHumidityWind speedWind direction
24.5.2018 11:59Kolín25.6 °C48.4 %1.6 m/s S
24.5.2018 11:59Jílové u Prahy - Borek24.3 °C52.7 %1.7 m/s W
24.5.2018 11:59Králův Dvůr20.7 °C66.8 %0.0 m/s NE
24.5.2018 11:59Černé Voděrady19.9 °C72.4 %2.6 m/s N
24.5.2018 11:58Chotětov23.3 °C47.5 %2.5 m/s E
24.5.2018 11:58Davle23.9 °C55.2 %1.2 m/s N
24.5.2018 11:58Opolany23.6 °C50.9 %1.9 m/s E
24.5.2018 11:58Hostín u Vojkovic23.7 °C62.9 %4.0 m/s NE
24.5.2018 11:59Sedlčany23.0 °C63.8 %1.3 m/s E
24.5.2018 11:59Hřebeč24.0 °C53.8 %2.4 m/s N
24.5.2018 11:58Mělník23.5 °C48.3 %2.6 m/s N
24.5.2018 11:59Jiřetice22.0 °C77.8 %1.6 m/s NE
24.5.2018 11:59Kněžmost14.1 °C47.4 %2.8 m/s E
24.5.2018 11:59Kojetice22.9 °C50.9 %3.5 m/s NE
24.5.2018 11:59Ledečky22.4 °C59.4 %4.1 m/s NE
24.5.2018 11:58Libeř28.5 °C39.3 %0.9 m/s NW
24.5.2018 11:59Sazená20.7 °C65.0 %6.3 m/s E
24.5.2018 11:59Malý Újezd22.8 °C61.1 %3.3 m/s SE
24.5.2018 11:59Zdice23.3 °C59.1 %1.4 m/s E
24.5.2018 11:59Červený Újezd24.2 °C58.8 %1.4 m/s NW
24.5.2018 11:59Mělník25.6 °C41.8 %1.2 m/s W
24.5.2018 11:59Řevnice25.1 °C50.7 %0.3 m/s E
24.5.2018 11:58Jince22.6 °C58.7 %2.1 m/s E
24.5.2018 11:59Olešná18.5 °C91.6 %2.3 m/s NE
24.5.2018 11:58Srby20.4 °C75.9 %5.5 m/s E
24.5.2018 11:59Kralupy nad Vltavou23.6 °C51.1 %2.0 m/s E
24.5.2018 11:59Mrač21.8 °C61.0 %1.9 m/s SE
23.5.2018 18:29Velvary22.9 °C52.9 %2.1 m/s SE
24.5.2018 11:58Dolní Jirčany21.2 °C69.6 %4.9 m/s E
24.5.2018 11:58Mladá Boleslav22.4 °C51.4 %0.0 m/s SW
24.5.2018 11:58Líbeznice21.5 °C62.5 %3.2 m/s SE
21.5.2018 19:07Mratín16.3 °C100.0 %0.0 m/s NE
24.5.2018 11:58Mšecké Žehrovice20.2 °C69.5 %2.2 m/s E
24.5.2018 11:58Odolena voda21.1 °C56.8 %4.5 m/s E
24.5.2018 11:58Oseček25.5 °C63.1 %1.9 m/s NE
3.5.2018 18:22Pátek18.0 °C66.1 %0.0 m/s N
24.5.2018 11:59Radlice24.0 °C52.9 %1.7 m/s SW
24.5.2018 11:58Husinec-Řež23.7 °C51.4 %1.3 m/s E
24.5.2018 11:59Semice24.9 °C52.7 %1.4 m/s N
24.5.2018 11:59Slaný22.8 °C62.2 %1.9 m/s SW
24.5.2018 11:59Kosmonosy21.6 °C58.5 %6.0 m/s SW
24.5.2018 11:59Srby20.4 °C75.5 %2.6 m/s E
24.5.2018 11:59Vestec21.9 °C68.6 %2.4 m/s S
24.5.2018 11:58Nebřich22.1 °C72.1 %1.4 m/s W
24.5.2018 11:58Vrbčany23.2 °C57.0 %1.6 m/s S
17.5.2018 10:46Všetaty13.8 °C93.4 %3.4 m/s NW
24.5.2018 11:58Chlístovice126.9 °C49.4 %0.8 m/s SW
24.5.2018 11:59Zibohlavy21.9 °C72.5 %2.8 m/s NE
Email notifications
Enter your email address to subscribe to notifications about news at warioweather.com. Your email address will not be used for any purpose other than sending these emails and will not be provided to any third party. The subscription can be ended at any time.
All data are only indicative. The portal administrator has no responsibility for potentially incorrect data and related consequences. Publishing or further sharing of content from www.warioweather.com is only allowed with written consent from WANET s.r.o.